Regional Weather Roundup
Issued by NWS Green Bay, WI

Home | Current Version | Previous Version | Graphics & Text | Print | Product List | Glossary Off
Versions: 1 2 3 4 5 6 7 8 9 10 11 12 13 14 15 16 17 18 19 20 21 22 23 24 25 26 27 28 29 30 31 32 33 34 35 36 37 38 39 40 41 42 43 44 45 46 47 48 49 50

000
ASUS43 KGRB 050310
RWRGRB

NORTH-CENTRAL AND NORTHEAST WISCONSIN REGIONAL WEATHER ROUNDUP
NATIONAL WEATHER SERVICE GREEN BAY WI
1000 PM CDT MON MAY 04 2015

WIZ005-009-010>012-018-019-050400-
NORTH CENTRAL WISCONSIN

CITY           SKY/WX    TMP DP  RH WIND       PRES   REMARKS
IRONWOOD       CLEAR     45  34  65 CALM      30.22R
MANITOWISH WTR PTCLDY    42  30  62 CALM      30.24R
ARBOR VITAE    PTCLDY    54  22  29 NE5       30.24R
EAGLE RIVER    CLEAR     50  26  39 N3        30.24R
LAND O LAKES   CLEAR     42  31  62 CALM      30.25S
RHINELANDER    PTCLDY    54  23  30 N5        30.23R
PHILLIPS       PTCLDY    49  25  39 NE7       30.22R
ANTIGO         MOCLDY    52  42  68 SE9       30.24R
TOMAHAWK       MOCLDY    52  25  34 CALM      30.23R
MERRILL        MOCLDY    52  33  48 N3        30.21R
$$

WIZ013-073-050400-
NORTHEAST WISCONSIN

CITY           SKY/WX    TMP DP  RH WIND       PRES   REMARKS
IRON MOUNTAIN  PTCLDY    52  36  54 CALM      30.24R
MARINETTE      MOCLDY    48  36  61 SE6       30.25R
OCONTO         MOCLDY    51  37  60 E3        30.25R
$$

WIZ017-030-035>037-045-050400-
CENTRAL WISCONSIN

CITY           SKY/WX    TMP DP  RH WIND       PRES   REMARKS
MEDFORD        PTCLDY    52  36  55 NE5       30.20R
WAUSAU         MOCLDY    56  40  55 E13       30.20R
MOSINEE        CLEAR     55  39  54 E7        30.22R
MARSHFIELD     PTCLDY    57  41  55 NE3       30.19R
WISC RAPIDS    MOCLDY    54  39  57 E9        30.19R
STEVENS POINT  MOCLDY    55  40  58 E8        30.21R
WAUPACA        PTCLDY    57  40  53 E6        30.23R
SHAWANO        MOCLDY    54  40  59 E7        30.24R
CLINTONVILLE   MOCLDY    54  39  58 E6        30.23R
$$

WIZ038-039-048-051-050400-
FOX VALLEY

CITY           SKY/WX    TMP DP  RH WIND       PRES   REMARKS
NWS GREEN BAY  MOCLDY    54  38  54 E6        30.23R
APPLETON       MOCLDY    55  36  47 E10       30.22R
OSHKOSH        MOCLDY    56  40  55 E9        30.21R
FOND DU LAC    MOCLDY    54  38  54 E5        30.20R
$$

WIZ022-050-052-050400-
EAST CENTRAL WISCONSIN

CITY           SKY/WX    TMP DP  RH WIND       PRES   REMARKS
STURGEON BAY   MOCLDY    50  32  50 E7        30.27S
MANITOWOC      MOCLDY    52  37  56 NE5       30.24R
SHEBOYGAN      MOCLDY    48  36  63 NE6       30.22R
$$

LMZ563-521-522-541>543-050400-
LAKESHORE

STATION/POSITION TIME  TEMP    WIND        PRES    VSBY  WAVE
                       AIR SEA DIR/SP/G                  HT/PER
                 (UTC) (F)     (DEG/KT/KT) (MB)    (MI)  (FT/S)
SHEBOYGAN LKSHOR 0300   47      20/ 10/ 12 1023.5R
KEWAUNEE LKSHORE 0300   48      60/  7/ 12 1023.2R
NORTHPORT PIER   0300   47     160/  6/  8 1024.4S
SISTER BAY LKSHO 0200   47     130/  8/ 11   N/A
CHAMBERS ISLAND  0300   49     120/  5/  7 1024.4R
MENOMINEE LKSHOR 0300   50     120/  5/  7 1024.7R
$$



USA.gov is the U.S. government's official web portal to all federal, state and local government web resources and services.